Jordan, MT

7:21 AM MDT on September 23, 2017 (GMT -0600)
Jordan

Weather History for KJDN - July, 2012

Change the Weather History Date:

Tuesday, July 10, 2012

  Actual Average Record
Temperature  
Mean Temperature 85 °F 69 °F  
Max Temperature 103 °F 85 °F 112 °F (1936)
Min Temperature 67 °F 53 °F 39 °F (1999)
Degree Days  
Heating Degree Days 0 1  
Month to date heating degree days 0 11  
Since 1 June heating degree days 76 136  
Since 1 July heating degree days 0 11  
Cooling Degree Days 20 5  
Month to date cooling degree days 122 43  
Year to date cooling degree days 237 97  
Since 1 June cooling degree days 227 91  
Growing Degree Days 36 (Base 50)    
Moisture  
Dew Point 45 °F    
Average Humidity 31    
Maximum Humidity 50    
Minimum Humidity 11    
Precipitation  
Precipitation 0.00 in 0.08 in 1.00 in (1983)
Month to date precipitation 0.32 0.85  
Year to date precipitation 5.07 7.71  
Snow  
Snow 0.00 in - - ()
Month to date snowfall 0.0  
Since 1 June snowfall 0.0  
Since 1 July snowfall 0.0  
Snow Depth 0.00 in    
Sea Level Pressure  
Sea Level Pressure 29.91 in    
Wind  
Wind Speed 9 mph (SE)    
Max Wind Speed 29 mph    
Max Gust Speed 37 mph    
T = Trace of Precipitation, MM = Missing Value Source: NWS Daily Summary

Daily Weather History Graph

Daily Weather History Graph

Search for Another Location

Airport or City:

Trip Planner

Search our weather history database for the weather conditions in past years. The results will help you decide how hot, cold, wet, or windy it might be!

Date:

Astronomy

Jul. 10, 2012 Rise Set
Actual Time 5:22 AM MDT 9:03 PM MDT
Civil Twilight 4:43 AM MDT 9:42 PM MDT
Nautical Twilight 3:50 AM MDT 10:34 PM MDT
Astronomical Twilight 2:36 AM MDT 11:47 PM MDT
Moon No Moon Rise 1:27 PM MDT (7/10)
Length of Visible Light 16h 59m
Length of Day
15h 41m
Waning Gibbous, 53% of the Moon is Illuminated
Jul 10
Waning Gibbous
Jul 10
Last Quarter
Jul 18
New
Jul 26
First Quarter
Aug 1
Full

Hourly Weather History & Observations

Time (MDT) Temp. Dew Point Humidity Pressure Visibility Wind Dir Wind Speed Gust Speed Precip Events Conditions
12:48 AM 71.1 °F 45.0 °F 39% 29.99 in - ESE 3.5 mph - N/A   Unknown
1:48 AM 73.9 °F 44.1 °F 34% 29.99 in - East 6.9 mph - N/A   Unknown
2:48 AM 72.0 °F 44.1 °F 37% 29.99 in - NE 4.6 mph - N/A   Unknown
3:48 AM 73.0 °F 43.0 °F 34% 29.98 in - East 5.8 mph - N/A   Unknown
4:48 AM 70.0 °F 44.1 °F 39% 29.97 in - ESE 4.6 mph - N/A   Unknown
5:48 AM 70.0 °F 45.0 °F 41% 29.98 in - East 5.8 mph - N/A   Unknown
6:48 AM 72.0 °F 46.0 °F 40% 29.98 in - Calm Calm - N/A   Unknown
7:48 AM 78.1 °F 48.0 °F 35% 29.97 in - Calm Calm - N/A   Unknown
8:48 AM 84.9 °F 48.9 °F 29% 29.95 in - South 5.8 mph - N/A   Unknown
9:48 AM 91.0 °F 48.0 °F 23% 29.94 in - South 5.8 mph - N/A   Unknown
10:48 AM 96.1 °F 44.1 °F 17% 29.93 in - South 12.7 mph 20.7 mph N/A   Unknown
11:48 AM 98.1 °F 44.1 °F 16% 29.91 in - South 15.0 mph 21.9 mph N/A   Unknown
12:48 PM 100.9 °F 39.9 °F 12% 29.90 in - SW 12.7 mph 20.7 mph N/A   Unknown
1:48 PM 100.9 °F 39.0 °F 12% 29.88 in - SSE 8.1 mph 16.1 mph N/A   Unknown
2:48 PM 102.0 °F 37.9 °F 11% 29.86 in - Variable 5.8 mph - N/A   Unknown
3:48 PM 100.9 °F 37.9 °F 11% 29.84 in - Variable 6.9 mph - N/A   Unknown
4:48 PM 102.0 °F 37.9 °F 11% 29.83 in - South 10.4 mph - N/A   Unknown
5:48 PM 100.9 °F 37.9 °F 11% 29.81 in - WSW 5.8 mph - N/A   Unknown
6:48 PM 87.1 °F 46.9 °F 25% 29.84 in - West 24.2 mph 36.8 mph N/A   Unknown
7:48 PM 93.0 °F 42.1 °F 17% 29.80 in - East 9.2 mph - N/A   Unknown
8:44 PM 84.2 °F 48.2 °F 29% 29.92 in - NE 12.7 mph - N/A   Unknown
8:48 PM 84.0 °F 48.0 °F 28% 29.85 in - NNE 13.8 mph - N/A   Unknown
9:48 PM 80.1 °F 51.1 °F 36% 29.86 in - East 13.8 mph 21.9 mph N/A   Unknown
10:48 PM 78.1 °F 53.1 °F 42% 29.86 in - East 13.8 mph - N/A   Unknown
11:48 PM 75.0 °F 55.0 °F 50% 29.85 in - East 10.4 mph - N/A   Unknown